Flag for Germany Weather past 2 weeks in Waldkraiburg, Bavaria, Germany

Now
30 °F

Chilly.


Feels Like: 30 °F
Forecast: 31 / 53 °F
Wind: 1 mph from South

Location: Erding Airport


UV Index: 0 (Low)

Visibility: N/A


Pressure: 30.33 "Hg

Humidity: 100%

Dew point: 30 °F

Location of WaldkraiburgLocation

Historic Weather in Waldkraiburg

°F

Waldkraiburg temperature yesterday

Maximum temperature yesterday: 50 °F (at 5:20 PM)
Minimum temperature yesterday: 32 °F (at 3:20 AM)
Average temperature yesterday: 41 °F

Past Weeks' High & Low Weather Summary

 TemperatureHumidityPressure
High68 °F (Apr 2, 3:20 PM)100% (Apr 2, 5:20 AM)30.36 "Hg (Apr 2, 5:20 AM)
Low32 °F (Apr 16, 3:20 AM)38% (Apr 2, 3:20 PM)29.68 "Hg (Apr 3, 3:20 PM)
Average50 °F73%30.02 "Hg
* Reported Apr 2 1:20 AM — Apr 17 1:20 AM, Waldkraiburg, Weather by CustomWeather, © 2014

Note: Actual official high and low records may vary slightly from our data, if they occured in-between our weather recording intervals... More about our weather records

Advertising

Historic Weather Conditions — Data for Previous 24 hours

 ConditionsComfort  
Time TempWeatherWind HumidityBarometerVisibility
1:20 AM
Apr 17
34 °FChilly.2 mph87%30.33 "HgN/A
12:20 AM34 °FChilly.2 mph81%30.36 "HgN/A
11:20 PM
Apr 16
37 °FChilly.3 mph70%30.36 "HgN/A
10:20 PM37 °FChilly.3 mph70%30.36 "HgN/A
9:20 PM37 °FChilly.2 mph70%30.33 "HgN/A
8:20 PM43 °FQuite cool.5 mph57%30.33 "HgN/A
7:20 PM46 °FCool.6 mph57%30.33 "HgN/A
6:20 PM48 °FCool.8 mph43%30.30 "HgN/A
5:20 PM50 °FCool.8 mph43%30.33 "HgN/A
4:20 PM48 °FCool.8 mph54%30.33 "HgN/A
3:20 PM48 °FPartly sunny.8 mph54%30.33 "HgN/A
2:20 PM48 °FBroken clouds.3 mph58%30.33 "HgN/A
1:20 PM45 °FSprinkles. Broken clouds.5 mph66%30.33 "HgN/A
12:20 PM45 °FBroken clouds.6 mph66%30.36 "HgN/A
11:20 AM43 °FBroken clouds.6 mph76%30.36 "HgN/A
10:20 AM41 °FBroken clouds.6 mph76%30.36 "HgN/A
9:20 AM39 °FScattered clouds.5 mph81%30.33 "HgN/A
8:20 AM36 °FPartly sunny.2 mph93%30.33 "HgN/A
7:20 AM32 °FPassing clouds.2 mph93%30.33 "HgN/A
6:20 AM34 °FChilly.3 mph93%30.30 "HgN/A
5:20 AM34 °FChilly.3 mph87%30.30 "HgN/A
4:20 AM34 °FChilly.5 mph87%30.27 "HgN/A
3:20 AM32 °FChilly.7 mph87%30.27 "HgN/A
2:20 AM36 °FChilly.6 mph81%30.27 "HgN/A
Weather by CustomWeather, © 2014

See weather overview